カタログに戻る

HULIANWANG DIGUI-18

運用中通信LEO
NORAD 62978·PAYLOAD·🇨🇳 China

打ち上げ Feb 11, 2025 から Wenchang Space Launch Site

Loading…

次のパス (今後24時間)

TLE

最新Source: Space-Track

元期: Sep 14, 2026, 13:33 UTC

1 62978U 25030H   26257.56527417 -.00000096  00000-0  61051-4 0  9994
2 62978  50.0059 274.9940 0000521  27.4590 332.6309 13.29325665 77757

AllMySatでHULIANWANG DIGUI-18をリアルタイム追跡

Download on the App Store